Minneapolis, MN

12:50 AM CDT on September 22, 2017 (GMT -0500)
Minneapolis-Saint Paul International

Weather History for KMSP - October, 2012

Change the Weather History Date:

Thursday, October 4, 2012

  Actual Average Record
Temperature  
Mean Temperature 53 °F 54 °F  
Max Temperature 64 °F 64 °F 89 °F (1922)
Min Temperature 42 °F 44 °F 24 °F (1935)
Degree Days  
Heating Degree Days 12 12  
Month to date heating degree days 23 44  
Since 1 July heating degree days 148 217  
Cooling Degree Days 0 0  
Month to date cooling degree days 0 3  
Year to date cooling degree days 1131 750  
Moisture  
Dew Point 34 °F    
Average Humidity 55    
Maximum Humidity 71    
Minimum Humidity 39    
Precipitation  
Precipitation 0.00 in 0.10 in 4.61 in (2005)
Month to date precipitation 0.00 0.40  
Year to date precipitation 26.02 25.65  
Snow  
Snow 0.00 in 0.00 in T in (1935)
Month to date snowfall 0.0 0.0  
Since 1 July snowfall T T  
Since 1 September snowfall 0.0 T  
Snow Depth 0.00 in    
Sea Level Pressure  
Sea Level Pressure 29.98 in    
Wind  
Wind Speed 20 mph (WSW)    
Max Wind Speed 30 mph    
Max Gust Speed 38 mph    
Visibility 10 miles    
Events      
T = Trace of Precipitation, MM = Missing Value Source: NWS Daily Summary

Daily Weather History Graph

Daily Weather History Graph

Search for Another Location

Airport or City:

Trip Planner

Search our weather history database for the weather conditions in past years. The results will help you decide how hot, cold, wet, or windy it might be!

Date:

Astronomy

Oct. 04, 2012 Rise Set
Actual Time 7:15 AM CDT 6:46 PM CDT
Civil Twilight 6:45 AM CDT 7:16 PM CDT
Nautical Twilight 6:12 AM CDT 7:49 PM CDT
Astronomical Twilight 5:37 AM CDT 8:24 PM CDT
Moon 9:11 PM CDT (10/4) 11:44 AM CDT (10/4)
Length of Visible Light 12h 30m
Length of Day
11h 31m
Waning Gibbous, 82% of the Moon is Illuminated
Oct 4
Waning Gibbous
Oct 8
Last Quarter
Oct 15
New
Oct 21
First Quarter
Oct 29
Full

Hourly Weather History & Observations

Time (CDT) Temp. Windchill Dew Point Humidity Pressure Visibility Wind Dir Wind Speed Gust Speed Precip Events Conditions
12:53 AM 63.0 °F - 43.0 °F 48% 29.82 in 10.0 mi SE 12.7 mph - N/A   Scattered Clouds
1:53 AM 61.0 °F - 43.0 °F 52% 29.80 in 10.0 mi SE 12.7 mph - N/A   Scattered Clouds
2:53 AM 62.1 °F - 41.0 °F 46% 29.78 in 10.0 mi South 11.5 mph - N/A   Partly Cloudy
3:53 AM 63.0 °F - 37.0 °F 38% 29.77 in 8.0 mi SSW 13.8 mph 21.9 mph N/A   Scattered Clouds
4:24 AM 55.4 °F - 39.2 °F 54% 29.81 in 8.0 mi WSW 17.3 mph 31.1 mph N/A   Mostly Cloudy
4:53 AM 51.1 °F - 39.9 °F 66% 29.82 in 7.0 mi SW 21.9 mph 34.5 mph N/A   Mostly Cloudy
5:20 AM 50.0 °F - 39.2 °F 66% 29.84 in 8.0 mi WSW 18.4 mph 33.4 mph N/A   Mostly Cloudy
5:53 AM 48.9 °F - 39.0 °F 69% 29.86 in 9.0 mi WSW 12.7 mph 28.8 mph N/A   Overcast
6:53 AM 48.0 °F - 39.0 °F 71% 29.88 in 10.0 mi WSW 20.7 mph 28.8 mph N/A   Overcast
7:53 AM 46.9 °F - 37.9 °F 71% 29.90 in 10.0 mi WSW 18.4 mph 28.8 mph N/A   Overcast
8:50 AM 44.6 °F 37.2 °F 35.6 °F 71% 29.93 in 10.0 mi WSW 17.3 mph 31.1 mph N/A   Mostly Cloudy
8:53 AM 45.0 °F 37.6 °F 35.1 °F 68% 29.93 in 10.0 mi WSW 17.3 mph 31.1 mph N/A   Mostly Cloudy
9:53 AM 46.9 °F - 33.1 °F 59% 29.95 in 10.0 mi WSW 20.7 mph 28.8 mph N/A   Mostly Cloudy
10:53 AM 44.1 °F 35.4 °F 33.1 °F 65% 29.98 in 10.0 mi West 21.9 mph 32.2 mph N/A   Overcast
11:53 AM 46.0 °F 37.6 °F 32.0 °F 58% 30.00 in 10.0 mi West 24.2 mph 36.8 mph N/A   Overcast
12:34 PM 48.2 °F - 32.0 °F 54% 30.01 in 10.0 mi West 23.0 mph 28.8 mph N/A   Mostly Cloudy
12:53 PM 48.0 °F - 30.9 °F 52% 30.02 in 10.0 mi West 25.3 mph 34.5 mph N/A   Overcast
1:53 PM 50.0 °F - 30.9 °F 48% 30.04 in 10.0 mi West 26.5 mph 33.4 mph N/A   Overcast
2:53 PM 48.9 °F - 30.0 °F 48% 30.06 in 10.0 mi West 23.0 mph 32.2 mph N/A   Mostly Cloudy
3:53 PM 48.9 °F - 30.0 °F 48% 30.08 in 10.0 mi West 20.7 mph 33.4 mph N/A   Overcast
4:53 PM 46.9 °F - 30.0 °F 52% 30.10 in 10.0 mi West 21.9 mph 34.5 mph N/A   Overcast
5:53 PM 46.0 °F 37.8 °F 28.9 °F 51% 30.12 in 10.0 mi West 23.0 mph 34.5 mph N/A   Overcast
6:53 PM 45.0 °F 37.1 °F 28.0 °F 52% 30.14 in 10.0 mi West 19.6 mph 27.6 mph N/A   Overcast
7:53 PM 45.0 °F 37.4 °F 28.0 °F 52% 30.15 in 10.0 mi WNW 18.4 mph 29.9 mph N/A   Overcast
8:53 PM 45.0 °F 36.9 °F 27.0 °F 49% 30.15 in 10.0 mi West 20.7 mph 27.6 mph N/A   Overcast
9:53 PM 43.0 °F 35.4 °F 28.0 °F 56% 30.17 in 10.0 mi WNW 16.1 mph 26.5 mph N/A   Scattered Clouds
10:53 PM 42.1 °F 33.3 °F 28.9 °F 60% 30.17 in 10.0 mi West 19.6 mph 32.2 mph N/A   Scattered Clouds
11:53 PM 42.1 °F 33.9 °F 28.9 °F 60% 30.17 in 10.0 mi WNW 17.3 mph 28.8 mph N/A   Overcast